CZ-6A DEB, 54328

Orbit data source: Space-Track

CZ-6A DEB, 54328 is space debris in SSO originally from a launch on Fri, 11 Nov 2022 UTC launched from the Taiyaun Space Center, China (TSC). Debris objects in space refer to the collection of defunct objects orbiting the Earth. Examples of debris include non-operational satellites, rocket bodies, and fragments generated from explosions, collisions, or faulty payload assembly.

Loading next visibility...
Identifier
54328, 2022-151BX
Orbit
SSO
Country
Flag of CNCN / PRC
Related business
Manufacturer
SAST
Mission
Spacecraft
Bus & Motor
Unknown
Mass
Unknown
Launch date (UTC)
2022-11-11 (4 years ago)
Launch vehicle
Unknown
Launch site
Taiyaun Space Center, China (TSC)
Object type
Payload
Rocket body
Debris
Shape & HBR
Unknown shape, 0.1 m
Radar Cross Section
Medium (>0.1 m² and <1 m²)

Expand to show TLE details & history
Last TLE update: 1 day ago

TLE from 1 day ago
0 CZ-6A DEB
1 54328U 22151BX  26208.32124466  .00814111  00000-0  69719-2 0  9999
2 54328  98.6231 332.9014 0023541 296.4262  63.4579 15.66693874127033
Epoch: 2026-07-27T07:42Z
TLE epoch observation values (Epoch: 2026-07-27T07:42:35.538Z)
Latitude
-0.00002°
Longitude
-87.75317°
Altitude
364.418 km
Speed
7.695 km/s
True Right ascension
22h 11m 36s
True Declination
0° 00' 00"
Sunlit
Object was in full shadow at epoch
Visualization orbit readout
Latitude
Unknown
Longitude
Unknown
Altitude
Unknown
Speed
Unknown
Apparent Right ascension
Unknown
Apparent Declination
Unknown
Sunlit
N/A
Visualization observer readout
Local Sidereal Time
06:26:36
Azimuth
Unknown
Elevation
Unknown
Doppler factor
Unknown
Orbital elements
Apogee altitude
381.208 km
Perigee altitude
349.458 km
Semi-major axis
6,743.47 km
Eccentricity
0.00235
Inclination
98.6231°
RAAN
332.9014°
Arg. of periapsis
296.4262°
True anomaly
63.69955°
Mean anomaly
63.4579°
Eccentric anomaly
63.57869°
Mean motion
3.91939 °/min
Orbital period
91.85 mins
BSTAR
0.0069719
Loading maneuver chart data...
Computing Atmospheric mass density...
Loading historical data...
Loading historical data...
Loading historical data...
Loading historical data...
Loading historical data...
Loading historical data...
Loading historical data...

Documentation

Showing up to 5 results
|